カタログに戻る

FENGYUN 1C DEB

運用中SSO
NORAD 31757·DEBRIS·🇨🇳 China

打ち上げ May 10, 1999 から Taiyuan Satellite Launch Center

Loading…

次のパス (今後24時間)

TLE

最新Source: Space-Track

元期: Sep 14, 2026, 06:40 UTC

1 31757U 99025CFG 26257.27797218  .00000335  00000-0  17880-3 0  9991
2 31757  98.7514 276.4284 0216530  26.6651 334.5463 14.08150794677596

AllMySatでFENGYUN 1C DEBをリアルタイム追跡

Download on the App Store